This demonstration page uses our WeatherBlox Daily Observations layout. Learn more.

36.17497, -115.13722

Hourly Observations for July 3, 2015

Temp ( °F °C ) Dew Point ( °F °C ) Humidity (%) Winds ( mph kmh ) Pressure ( in mb ) Visibility ( mi km ) Precip ( " mm )
12:53 am 00:53 Clear 93 33.9 54 12.2 27 27 N 7 11 29.78 1009 10 16.0934 0 0
1:53 am 01:53 Clear 92 33.3 54 12.2 28 28 W 6 9 29.78 1008 10 16.0934 0 0
2:53 am 02:53 Clear 90 32.2 55 12.8 31 31 Calm 29.78 1009 10 16.0934 0 0
3:53 am 03:53 Clear 89 31.7 54 12.2 30 30 SSE 3 6 29.79 1009 10 16.0934 0 0
4:53 am 04:53 Clear 88 31.1 54 12.2 31 31 ENE 6 9 29.8 1009 10 16.0934 0 0
5:53 am 05:53 Sunny 87 30.6 55 12.8 34 34 Calm 29.81 1010 10 16.0934 0 0
6:53 am 06:53 Sunny 88 31.1 54 12.2 31 31 Calm 29.83 1010 10 16.0934 0 0
7:53 am 07:53 Sunny 92 33.3 54 12.2 28 28 Calm 29.83 1010 10 16.0934 0 0
8:53 am 08:53 Sunny 94 34.4 54 12.2 26 26 Calm 29.84 1010 10 16.0934 0 0
9:53 am 09:53 Sunny 98 36.7 55 12.8 24 24 VRB 3 6 29.83 1010 10 16.0934 0 0
10:53 am 10:53 Sunny 100 37.8 54 12.2 21 21 S 8 13 29.83 1010 10 16.0934 0 0
11:53 am 11:53 Sunny 101 38.3 53 11.7 20 20 SSE 8 13 29.82 1010 10 16.0934 0 0
12:53 pm 12:53 Sunny 102 38.9 52 11.1 19 19 VRB 5 7 29.79 1009 10 16.0934 0 0
1:53 pm 13:53 Sunny 105 40.6 49 9.4 15 15 VRB 7 11 29.76 1008 10 16.0934 0 0
2:53 pm 14:53 Sunny 106 41.1 43 6.1 12 12 S 6 9 29.74 1007 10 16.0934 0 0
3:53 pm 15:53 Sunny 106 41.1 46 7.8 13 13 VRB 7 11 29.7 1006 10 16.0934 0 0
4:53 pm 16:53 Sunny 107 41.7 43 6.1 11 11 VRB 5 7 29.68 1005 10 16.0934 0 0
5:53 pm 17:53 Sunny 107 41.7 44 6.7 12 12 SSE 12 19 29.66 1005 10 16.0934 0 0
6:53 pm 18:53 Sunny 106 41.1 42 5.6 11 11 W 13 20 29.66 1004 10 16.0934 0 0
7:53 pm 19:53 Sunny 104 40 37 2.8 10 10 W 10 17 29.67 1005 10 16.0934 0 0
8:53 pm 20:53 Clear 102 38.9 44 6.7 14 14 NNE 5 7 29.67 1005 10 16.0934 0 0
9:53 pm 21:53 Clear 100 37.8 49 9.4 18 18 NNE 10 17 29.69 1005 10 16.0934 0 0
10:53 pm 22:53 Clear 98 36.7 50 10 20 20 NNW 7 11 29.7 1006 10 16.0934 0 0
11:53 pm 23:53 Clear 96 35.6 49 9.4 20 20 W 9 15 29.71 1006 10 16.0934 0 0

Powered by AerisWeather